Regional Weather Roundup
Issued by NWS Newport/Morehead, NC

Current Version | Previous Version | Graphics & Text | Print | Product List | Glossary Off
Versions: 1 2 3 4 5 6 7 8 9 10 11 12 13 14 15 16 17 18 19 20 21 22 23 24 25 26 27 28 29 30 31 32 33 34 35 36 37 38 39 40 41 42 43 44 45 46 47 48 49 50

000
ASUS42 KMHX 051613
RWRMHX
WEATHER ROUNDUP FOR EASTERN NORTH CAROLINA
NATIONAL WEATHER SERVICE NEWPORT/MOREHEAD CITY NC
1200 PM EDT SUN JUL 05 2015

NOTE: "FAIR" INDICATES FEW OR NO CLOUDS BELOW 12,000 FEET
WITH NO SIGNIFICANT WEATHER AND/OR OBSTRUCTIONS TO VISIBILITY

NCZ015>017-031-032-045>047-102-103-051700-
NORTH COAST

CITY           SKY/WX    TMP DP  RH WIND       PRES   REMARKS
EDENTON          N/A     83  74  75 SW7       30.14S
ELIZABETH CITY MOSUNNY   84  74  71 VRB6      30.13S
KITTY HAWK     PTSUNNY   85  74  68 SW3       30.14S
MANTEO         PTSUNNY   81  73  75 W3        30.15S

$$

NCZ045>047-081-094-103-104-051700-
CENTRAL COAST

CITY           SKY/WX    TMP DP  RH WIND       PRES   REMARKS
FRISCO         MOSUNNY   81  72  74 SW13      30.16R
SWANQUARTER      N/A     86 N/A N/A SW6       30.12S

$$

NCZ095-097-098-100-101-051700-
SOUTHERN COAST

CITY           SKY/WX    TMP DP  RH WIND       PRES   REMARKS
BEAUFORT       PTSUNNY   85  73  67 SW15      30.15S
CEDAR ISLAND     N/A     86 N/A N/A W6        30.18S
JACKSONVILLE   SUNNY     85  68  56 SW7       30.14S
PINEY ISLAND   MOSUNNY  N/A N/A N/A S8        30.14F
WILMINGTON     SUNNY     86  69  56 VRB6      30.15S


$$

NCZ011>013-027>030-043-044-078>080-089-090>093-098-051700-
COASTAL PLAIN

CITY           SKY/WX    TMP DP  RH WIND       PRES   REMARKS
AHOSKIE        MOSUNNY  N/A N/A N/A CALM      30.13S
CLINTON        SUNNY     86  73  66 SW3       30.13F
ELIZABETHTOWN  SUNNY     85  69  58 S5        30.14S
GOLDSBORO      MOSUNNY   86  73  63 SW8       30.10F
GREENVILLE     PTSUNNY   86  73  66 SW5       30.14S
HAVELOCK       MOSUNNY   86  69  56 SW10      30.15S
KENANSVILLE    SUNNY     84  69  59 SE3       30.14F
KINSTON        MOSUNNY   86  72  62 S3        30.14S
NEW BERN       MOSUNNY   87  72  60 VRB3      30.15S
RICHLANDS      SUNNY     90  70  51 SW6       30.14S
ROCKY MOUNT    MOSUNNY   88  72  58 S5        30.11F
WASHINGTON     MOSUNNY   85  73  67 S3        30.14S
WHITEVILLE     SUNNY     85  70  61 CALM      30.13F

$$

AMZ130-135-150-152-154-156-158-170-250-252-270-ANZ085-086-088-633-658-670-051700-
MARINE OBSERVATIONS

STATION/POSITION TIME  TEMP    WIND        PRES    WAVE   SWELL
                       AIR SEA DIR/SP/G            HT/PER HT/PER
                 (UTC) (F)     (DEG/KT/KT) (MB)    (FT/S) (FT/S)
CHESAPEAKE LIGHT 1600   76      90/  8/  9 1021.6
64 E VA BEACH    1550   76 78   70/  6/  6 1020.5    4/ 7   3/ 7
DUCK             1500   79 77  260/  4/  6   N/A
2 E DUCK         1511      78                N/A     2/ 9
OREGON INLET     1500   80 79  230/  6/  7 1020.6
13E OREGON INLT  1600      78                N/A     3/ 6   2/14
HATTERAS CG      1500   81 79  220/ 11/ 15 1020.8
DIAMOND BUOY     1550   80 81  240/ 16/ 17 1020.8    4/ 6   2/ 9
CAPE LOOKOUT     1600   82     220/ 11/ 13 1020.9
BEAUFORT LAB     1500   82 80  220/  6/ 11 1020.4
30 SE NEW RVR IN NOT AVBL
27 SE WRIGHTSVLE 1500      80  250/ 10/ 12   N/A
5 SE WRIGHTSVLE  1508   79 79  210/  6/  8 1021.0
225 S CAPE HAT   1550   79 80  220/ 12/ 16 1024.2    4/ 9   3/ 9
41 SE CHARLESTON 1550   81 82  220/ 10/ 10 1020.8    3/ 9   2/ 9

$$



USA.gov is the U.S. government's official web portal to all federal, state and local government web resources and services.